Time,TemperatureF,DewpointF,PressureIn,WindDirection,WindDirectionDegrees,WindSpeedMPH,WindSpeedGustMPH,Humidity,HourlyPrecipIn,Conditions,Clouds,dailyrainin,SoftwareType,DateUTC
2014-01-28 00:00:00,9.4,-99.9,28.78,North,-999,-999.0,-999.0,-999,-99.99,,,-99.99,,2014-01-28 05:00:00,
2014-01-28 00:02:00,9.3,-99.9,28.78,North,-999,-999.0,-999.0,-999,-99.99,,,-99.99,,2014-01-28 05:02:00,
2014-01-28 00:04:00,9.3,-99.9,28.78,North,-999,-999.0,-999.0,-999,-99.99,,,-99.99,,2014-01-28 05:04:00,
2014-01-28 00:08:00,9.1,-99.9,28.78,North,-999,-999.0,-999.0,-999,-99.99,,,-99.99,,2014-01-28 05:08:00,
2014-01-28 00:14:00,8.9,-99.9,28.78,North,-999,-999.0,-999.0,-999,-99.99,,,-99.99,,2014-01-28 05:14:00,
2014-01-28 00:18:00,8.9,-99.9,28.78,North,-999,-999.0,-999.0,-999,-99.99,,,-99.99,,2014-01-28 05:18:00,
2014-01-28 00:22:00,8.8,-99.9,28.78,North,-999,-999.0,-999.0,-999,-99.99,,,-99.99,,2014-01-28 05:22:00,
2014-01-28 00:26:00,8.7,-99.9,28.81,North,-999,-999.0,-999.0,-999,-99.99,,,-99.99,,2014-01-28 05:26:00,
2014-01-28 00:32:00,8.5,-99.9,28.81,North,-999,-999.0,-999.0,-999,-99.99,,,-99.99,,2014-01-28 05:32:00,
2014-01-28 00:38:00,8.4,-99.9,28.81,North,-999,-999.0,-999.0,-999,-99.99,,,-99.99,,2014-01-28 05:38:00,
2014-01-28 00:44:00,8.4,-99.9,28.78,North,-999,-999.0,-999.0,-999,-99.99,,,-99.99,,2014-01-28 05:44:00,
2014-01-28 00:50:00,8.2,-99.9,28.81,North,-999,-999.0,-999.0,-999,-99.99,,,-99.99,,2014-01-28 05:50:00,
2014-01-28 00:56:00,8.0,-99.9,28.81,North,-999,-999.0,-999.0,-999,-99.99,,,-99.99,,2014-01-28 05:56:00,
2014-01-28 01:02:00,7.9,-99.9,28.81,North,-999,-999.0,-999.0,-999,-99.99,,,-99.99,,2014-01-28 06:02:00,
2014-01-28 01:08:00,7.8,-99.9,28.81,North,-999,-999.0,-999.0,-999,-99.99,,,-99.99,,2014-01-28 06:08:00,
2014-01-28 01:14:00,7.8,-99.9,28.78,North,-999,-999.0,-999.0,-999,-99.99,,,-99.99,,2014-01-28 06:14:00,
2014-01-28 01:20:00,7.7,-99.9,28.81,North,-999,-999.0,-999.0,-999,-99.99,,,-99.99,,2014-01-28 06:20:00,
2014-01-28 01:26:00,7.8,-99.9,28.81,North,-999,-999.0,-999.0,-999,-99.99,,,-99.99,,2014-01-28 06:26:00,
2014-01-28 01:32:00,7.3,-99.9,28.81,North,-999,-999.0,-999.0,-999,-99.99,,,-99.99,,2014-01-28 06:32:00,
2014-01-28 01:38:00,7.1,-99.9,28.81,North,-999,-999.0,-999.0,-999,-99.99,,,-99.99,,2014-01-28 06:38:00,
2014-01-28 01:44:00,7.2,-99.9,28.81,North,-999,-999.0,-999.0,-999,-99.99,,,-99.99,,2014-01-28 06:44:00,
2014-01-28 01:50:00,7.2,-99.9,28.81,North,-999,-999.0,-999.0,-999,-99.99,,,-99.99,,2014-01-28 06:50:00,
2014-01-28 01:56:00,7.1,-99.9,28.81,North,-999,-999.0,-999.0,-999,-99.99,,,-99.99,,2014-01-28 06:56:00,
2014-01-28 02:02:00,6.9,-99.9,28.84,North,-999,-999.0,-999.0,-999,-99.99,,,-99.99,,2014-01-28 07:02:00,
2014-01-28 02:08:00,6.7,-99.9,28.81,North,-999,-999.0,-999.0,-999,-99.99,,,-99.99,,2014-01-28 07:08:00,
2014-01-28 02:14:00,6.6,-99.9,28.81,North,-999,-999.0,-999.0,-999,-99.99,,,-99.99,,2014-01-28 07:14:00,
2014-01-28 02:20:00,6.5,-99.9,28.81,North,-999,-999.0,-999.0,-999,-99.99,,,-99.99,,2014-01-28 07:20:00,
2014-01-28 02:26:00,6.5,-99.9,28.81,North,-999,-999.0,-999.0,-999,-99.99,,,-99.99,,2014-01-28 07:26:00,
2014-01-28 02:32:00,6.1,-99.9,28.84,North,-999,-999.0,-999.0,-999,-99.99,,,-99.99,,2014-01-28 07:32:00,
2014-01-28 02:38:00,6.1,-99.9,28.84,North,-999,-999.0,-999.0,-999,-99.99,,,-99.99,,2014-01-28 07:38:00,
2014-01-28 02:44:00,6.2,-99.9,28.84,North,-999,-999.0,-999.0,-999,-99.99,,,-99.99,,2014-01-28 07:44:00,
2014-01-28 02:50:00,6.0,-99.9,28.84,North,-999,-999.0,-999.0,-999,-99.99,,,-99.99,,2014-01-28 07:50:00,
2014-01-28 02:56:00,6.2,-99.9,28.84,North,-999,-999.0,-999.0,-999,-99.99,,,-99.99,,2014-01-28 07:56:00,
2014-01-28 03:02:00,6.2,-99.9,28.84,North,-999,-999.0,-999.0,-999,-99.99,,,-99.99,,2014-01-28 08:02:00,
2014-01-28 03:08:00,6.0,-99.9,28.84,North,-999,-999.0,-999.0,-999,-99.99,,,-99.99,,2014-01-28 08:08:00,
2014-01-28 03:14:00,5.9,-99.9,28.84,North,-999,-999.0,-999.0,-999,-99.99,,,-99.99,,2014-01-28 08:14:00,
2014-01-28 03:20:00,5.8,-99.9,28.84,North,-999,-999.0,-999.0,-999,-99.99,,,-99.99,,2014-01-28 08:20:00,
2014-01-28 03:26:00,5.8,-99.9,28.84,North,-999,-999.0,-999.0,-999,-99.99,,,-99.99,,2014-01-28 08:26:00,
2014-01-28 03:32:00,5.9,-99.9,28.84,North,-999,-999.0,-999.0,-999,-99.99,,,-99.99,,2014-01-28 08:32:00,
2014-01-28 03:38:00,5.7,-99.9,28.84,North,-999,-999.0,-999.0,-999,-99.99,,,-99.99,,2014-01-28 08:38:00,
2014-01-28 03:44:00,5.5,-99.9,28.88,North,-999,-999.0,-999.0,-999,-99.99,,,-99.99,,2014-01-28 08:44:00,
2014-01-28 03:50:00,5.6,-99.9,28.88,North,-999,-999.0,-999.0,-999,-99.99,,,-99.99,,2014-01-28 08:50:00,
2014-01-28 03:56:00,5.6,-99.9,28.88,North,-999,-999.0,-999.0,-999,-99.99,,,-99.99,,2014-01-28 08:56:00,
2014-01-28 04:02:00,5.7,-99.9,28.88,North,-999,-999.0,-999.0,-999,-99.99,,,-99.99,,2014-01-28 09:02:00,
2014-01-28 04:08:00,5.5,-99.9,28.84,North,-999,-999.0,-999.0,-999,-99.99,,,-99.99,,2014-01-28 09:08:00,
2014-01-28 04:14:00,5.5,-99.9,28.88,North,-999,-999.0,-999.0,-999,-99.99,,,-99.99,,2014-01-28 09:14:00,
2014-01-28 04:20:00,5.4,-99.9,28.88,North,-999,-999.0,-999.0,-999,-99.99,,,-99.99,,2014-01-28 09:20:00,
2014-01-28 04:26:00,5.2,-99.9,28.88,North,-999,-999.0,-999.0,-999,-99.99,,,-99.99,,2014-01-28 09:26:00,
2014-01-28 04:32:00,5.3,-99.9,28.88,North,-999,-999.0,-999.0,-999,-99.99,,,-99.99,,2014-01-28 09:32:00,
2014-01-28 04:38:00,5.4,-99.9,28.88,North,-999,-999.0,-999.0,-999,-99.99,,,-99.99,,2014-01-28 09:38:00,
2014-01-28 04:44:00,5.6,-99.9,28.88,North,-999,-999.0,-999.0,-999,-99.99,,,-99.99,,2014-01-28 09:44:00,
2014-01-28 04:50:00,5.3,-99.9,28.91,North,-999,-999.0,-999.0,-999,-99.99,,,-99.99,,2014-01-28 09:50:00,
2014-01-28 04:56:00,5.1,-99.9,28.91,North,-999,-999.0,-999.0,-999,-99.99,,,-99.99,,2014-01-28 09:56:00,
2014-01-28 05:02:00,5.2,-99.9,28.88,North,-999,-999.0,-999.0,-999,-99.99,,,-99.99,,2014-01-28 10:02:00,
2014-01-28 05:08:00,5.3,-99.9,28.91,North,-999,-999.0,-999.0,-999,-99.99,,,-99.99,,2014-01-28 10:08:00,
2014-01-28 05:14:00,5.3,-99.9,28.91,North,-999,-999.0,-999.0,-999,-99.99,,,-99.99,,2014-01-28 10:14:00,
2014-01-28 05:20:00,5.2,-99.9,28.91,North,-999,-999.0,-999.0,-999,-99.99,,,-99.99,,2014-01-28 10:20:00,
2014-01-28 05:26:00,5.3,-99.9,28.91,North,-999,-999.0,-999.0,-999,-99.99,,,-99.99,,2014-01-28 10:26:00,
2014-01-28 05:32:00,5.4,-99.9,28.91,North,-999,-999.0,-999.0,-999,-99.99,,,-99.99,,2014-01-28 10:32:00,
2014-01-28 05:38:00,5.3,-99.9,28.91,North,-999,-999.0,-999.0,-999,-99.99,,,-99.99,,2014-01-28 10:38:00,
2014-01-28 05:44:00,5.2,-99.9,28.91,North,-999,-999.0,-999.0,-999,-99.99,,,-99.99,,2014-01-28 10:44:00,
2014-01-28 05:50:00,5.2,-99.9,28.91,North,-999,-999.0,-999.0,-999,-99.99,,,-99.99,,2014-01-28 10:50:00,
2014-01-28 05:56:00,5.1,-99.9,28.94,North,-999,-999.0,-999.0,-999,-99.99,,,-99.99,,2014-01-28 10:56:00,
2014-01-28 06:02:00,5.1,-99.9,28.91,North,-999,-999.0,-999.0,-999,-99.99,,,-99.99,,2014-01-28 11:02:00,
2014-01-28 06:08:00,4.9,-99.9,28.91,North,-999,-999.0,-999.0,-999,-99.99,,,-99.99,,2014-01-28 11:08:00,
2014-01-28 06:14:00,5.1,-99.9,28.94,North,-999,-999.0,-999.0,-999,-99.99,,,-99.99,,2014-01-28 11:14:00,
2014-01-28 06:20:00,5.0,-99.9,28.94,North,-999,-999.0,-999.0,-999,-99.99,,,-99.99,,2014-01-28 11:20:00,
2014-01-28 06:26:00,5.0,-99.9,28.94,North,-999,-999.0,-999.0,-999,-99.99,,,-99.99,,2014-01-28 11:26:00,
2014-01-28 06:32:00,5.1,-99.9,28.94,North,-999,-999.0,-999.0,-999,-99.99,,,-99.99,,2014-01-28 11:32:00,
2014-01-28 06:38:00,5.0,-99.9,28.94,North,-999,-999.0,-999.0,-999,-99.99,,,-99.99,,2014-01-28 11:38:00,
2014-01-28 06:44:00,4.9,-99.9,28.94,North,-999,-999.0,-999.0,-999,-99.99,,,-99.99,,2014-01-28 11:44:00,
2014-01-28 06:50:00,4.9,-99.9,28.94,North,-999,-999.0,-999.0,-999,-99.99,,,-99.99,,2014-01-28 11:50:00,
2014-01-28 06:56:00,4.9,-99.9,28.97,North,-999,-999.0,-999.0,-999,-99.99,,,-99.99,,2014-01-28 11:56:00,
2014-01-28 07:02:00,5.0,-99.9,28.97,North,-999,-999.0,-999.0,-999,-99.99,,,-99.99,,2014-01-28 12:02:00,
2014-01-28 07:08:00,4.8,-99.9,28.97,North,-999,-999.0,-999.0,-999,-99.99,,,-99.99,,2014-01-28 12:08:00,
2014-01-28 07:14:00,4.7,-99.9,28.97,North,-999,-999.0,-999.0,-999,-99.99,,,-99.99,,2014-01-28 12:14:00,
2014-01-28 07:20:00,4.5,-99.9,28.97,North,-999,-999.0,-999.0,-999,-99.99,,,-99.99,,2014-01-28 12:20:00,
2014-01-28 07:26:00,4.3,-99.9,28.97,North,-999,-999.0,-999.0,-999,-99.99,,,-99.99,,2014-01-28 12:26:00,
2014-01-28 07:32:00,4.0,-99.9,28.97,North,-999,-999.0,-999.0,-999,-99.99,,,-99.99,,2014-01-28 12:32:00,
2014-01-28 07:38:00,4.0,-99.9,29.00,North,-999,-999.0,-999.0,-999,-99.99,,,-99.99,,2014-01-28 12:38:00,
2014-01-28 07:44:00,4.1,-99.9,28.97,North,-999,-999.0,-999.0,-999,-99.99,,,-99.99,,2014-01-28 12:44:00,
2014-01-28 07:50:00,4.1,-99.9,29.00,North,-999,-999.0,-999.0,-999,-99.99,,,-99.99,,2014-01-28 12:50:00,
2014-01-28 07:56:00,4.2,-99.9,29.00,North,-999,-999.0,-999.0,-999,-99.99,,,-99.99,,2014-01-28 12:56:00,
2014-01-28 08:02:00,4.4,-99.9,29.00,North,-999,-999.0,-999.0,-999,-99.99,,,-99.99,,2014-01-28 13:02:00,
2014-01-28 08:08:00,4.6,-99.9,29.00,North,-999,-999.0,-999.0,-999,-99.99,,,-99.99,,2014-01-28 13:08:00,
2014-01-28 08:14:00,4.7,-99.9,29.00,North,-999,-999.0,-999.0,-999,-99.99,,,-99.99,,2014-01-28 13:14:00,
2014-01-28 08:20:00,5.1,-99.9,29.00,North,-999,-999.0,-999.0,-999,-99.99,,,-99.99,,2014-01-28 13:20:00,
2014-01-28 08:26:00,5.5,-99.9,29.00,North,-999,-999.0,-999.0,-999,-99.99,,,-99.99,,2014-01-28 13:26:00,
2014-01-28 08:32:00,5.9,-99.9,29.00,North,-999,-999.0,-999.0,-999,-99.99,,,-99.99,,2014-01-28 13:32:00,
2014-01-28 08:38:00,6.8,-99.9,29.00,North,-999,-999.0,-999.0,-999,-99.99,,,-99.99,,2014-01-28 13:38:00,
2014-01-28 08:44:00,8.4,-99.9,29.04,North,-999,-999.0,-999.0,-999,-99.99,,,-99.99,,2014-01-28 13:44:00,
2014-01-28 08:50:00,9.2,-99.9,29.04,North,-999,-999.0,-999.0,-999,-99.99,,,-99.99,,2014-01-28 13:50:00,
2014-01-28 08:56:00,10.5,-99.9,29.04,North,-999,-999.0,-999.0,-999,-99.99,,,-99.99,,2014-01-28 13:56:00,
2014-01-28 09:02:00,12.1,-99.9,29.00,North,-999,-999.0,-999.0,-999,-99.99,,,-99.99,,2014-01-28 14:02:00,
2014-01-28 09:08:00,12.8,-99.9,29.04,North,-999,-999.0,-999.0,-999,-99.99,,,-99.99,,2014-01-28 14:08:00,
2014-01-28 09:14:00,13.8,-99.9,29.04,North,-999,-999.0,-999.0,-999,-99.99,,,-99.99,,2014-01-28 14:14:00,
2014-01-28 09:20:00,14.4,-99.9,29.04,North,-999,-999.0,-999.0,-999,-99.99,,,-99.99,,2014-01-28 14:20:00,
2014-01-28 09:26:00,14.9,-99.9,29.04,North,-999,-999.0,-999.0,-999,-99.99,,,-99.99,,2014-01-28 14:26:00,
2014-01-28 09:32:00,15.7,-99.9,29.04,North,-999,-999.0,-999.0,-999,-99.99,,,-99.99,,2014-01-28 14:32:00,
2014-01-28 09:38:00,16.3,-99.9,29.04,North,-999,-999.0,-999.0,-999,-99.99,,,-99.99,,2014-01-28 14:38:00,
2014-01-28 09:44:00,15.9,-99.9,29.04,North,-999,-999.0,-999.0,-999,-99.99,,,-99.99,,2014-01-28 14:44:00,
2014-01-28 09:50:00,16.5,-99.9,29.04,North,-999,-999.0,-999.0,-999,-99.99,,,-99.99,,2014-01-28 14:50:00,
2014-01-28 09:56:00,16.9,-99.9,29.07,North,-999,-999.0,-999.0,-999,-99.99,,,-99.99,,2014-01-28 14:56:00,
2014-01-28 10:02:00,17.5,-99.9,29.04,North,-999,-999.0,-999.0,-999,-99.99,,,-99.99,,2014-01-28 15:02:00,
2014-01-28 10:08:00,17.9,-99.9,29.04,North,-999,-999.0,-999.0,-999,-99.99,,,-99.99,,2014-01-28 15:08:00,
2014-01-28 10:14:00,18.4,-99.9,29.04,North,-999,-999.0,-999.0,-999,-99.99,,,-99.99,,2014-01-28 15:14:00,
2014-01-28 10:20:00,18.8,-99.9,29.07,North,-999,-999.0,-999.0,-999,-99.99,,,-99.99,,2014-01-28 15:20:00,
2014-01-28 10:26:00,19.5,-99.9,29.04,North,-999,-999.0,-999.0,-999,-99.99,,,-99.99,,2014-01-28 15:26:00,
2014-01-28 10:32:00,20.4,-99.9,29.04,North,-999,-999.0,-999.0,-999,-99.99,,,-99.99,,2014-01-28 15:32:00,
2014-01-28 10:38:00,19.3,-99.9,29.07,North,-999,-999.0,-999.0,-999,-99.99,,,-99.99,,2014-01-28 15:38:00,
2014-01-28 10:44:00,19.4,-99.9,29.04,North,-999,-999.0,-999.0,-999,-99.99,,,-99.99,,2014-01-28 15:44:00,
2014-01-28 10:50:00,20.5,-99.9,29.07,North,-999,-999.0,-999.0,-999,-99.99,,,-99.99,,2014-01-28 15:50:00,
2014-01-28 10:56:00,21.2,-99.9,29.04,North,-999,-999.0,-999.0,-999,-99.99,,,-99.99,,2014-01-28 15:56:00,
2014-01-28 11:02:00,20.1,-99.9,29.04,North,-999,-999.0,-999.0,-999,-99.99,,,-99.99,,2014-01-28 16:02:00,
2014-01-28 11:08:00,19.4,-99.9,29.07,North,-999,-999.0,-999.0,-999,-99.99,,,-99.99,,2014-01-28 16:08:00,
2014-01-28 11:14:00,20.8,-99.9,29.04,North,-999,-999.0,-999.0,-999,-99.99,,,-99.99,,2014-01-28 16:14:00,
2014-01-28 11:20:00,21.3,-99.9,29.04,North,-999,-999.0,-999.0,-999,-99.99,,,-99.99,,2014-01-28 16:20:00,
2014-01-28 11:26:00,21.1,-99.9,29.04,North,-999,-999.0,-999.0,-999,-99.99,,,-99.99,,2014-01-28 16:26:00,
2014-01-28 11:32:00,21.1,-99.9,29.04,North,-999,-999.0,-999.0,-999,-99.99,,,-99.99,,2014-01-28 16:32:00,
2014-01-28 11:38:00,22.0,-99.9,29.04,North,-999,-999.0,-999.0,-999,-99.99,,,-99.99,,2014-01-28 16:38:00,
2014-01-28 11:44:00,21.3,-99.9,29.04,North,-999,-999.0,-999.0,-999,-99.99,,,-99.99,,2014-01-28 16:44:00,
2014-01-28 11:50:00,20.8,-99.9,29.04,North,-999,-999.0,-999.0,-999,-99.99,,,-99.99,,2014-01-28 16:50:00,
2014-01-28 11:56:00,22.0,-99.9,29.04,North,-999,-999.0,-999.0,-999,-99.99,,,-99.99,,2014-01-28 16:56:00,
2014-01-28 12:02:00,21.4,-99.9,29.04,North,-999,-999.0,-999.0,-999,-99.99,,,-99.99,,2014-01-28 17:02:00,
2014-01-28 12:08:00,20.0,-99.9,29.04,North,-999,-999.0,-999.0,-999,-99.99,,,-99.99,,2014-01-28 17:08:00,
2014-01-28 12:14:00,19.1,-99.9,29.04,North,-999,-999.0,-999.0,-999,-99.99,,,-99.99,,2014-01-28 17:14:00,
2014-01-28 12:20:00,19.6,-99.9,29.00,North,-999,-999.0,-999.0,-999,-99.99,,,-99.99,,2014-01-28 17:20:00,
2014-01-28 12:26:00,19.5,-99.9,29.04,North,-999,-999.0,-999.0,-999,-99.99,,,-99.99,,2014-01-28 17:26:00,
2014-01-28 12:32:00,19.0,-99.9,29.00,North,-999,-999.0,-999.0,-999,-99.99,,,-99.99,,2014-01-28 17:32:00,
2014-01-28 12:38:00,19.6,-99.9,29.00,North,-999,-999.0,-999.0,-999,-99.99,,,-99.99,,2014-01-28 17:38:00,
2014-01-28 12:44:00,19.8,-99.9,29.00,North,-999,-999.0,-999.0,-999,-99.99,,,-99.99,,2014-01-28 17:44:00,
2014-01-28 12:50:00,19.2,-99.9,29.04,North,-999,-999.0,-999.0,-999,-99.99,,,-99.99,,2014-01-28 17:50:00,
2014-01-28 12:56:00,18.6,-99.9,29.00,North,-999,-999.0,-999.0,-999,-99.99,,,-99.99,,2014-01-28 17:56:00,
2014-01-28 13:02:00,18.0,-99.9,29.00,North,-999,-999.0,-999.0,-999,-99.99,,,-99.99,,2014-01-28 18:02:00,
2014-01-28 13:08:00,17.7,-99.9,29.04,North,-999,-999.0,-999.0,-999,-99.99,,,-99.99,,2014-01-28 18:08:00,
2014-01-28 13:14:00,18.2,-99.9,29.00,North,-999,-999.0,-999.0,-999,-99.99,,,-99.99,,2014-01-28 18:14:00,
2014-01-28 13:20:00,17.9,-99.9,29.00,North,-999,-999.0,-999.0,-999,-99.99,,,-99.99,,2014-01-28 18:20:00,
2014-01-28 13:26:00,16.4,-99.9,29.00,North,-999,-999.0,-999.0,-999,-99.99,,,-99.99,,2014-01-28 18:26:00,
2014-01-28 13:32:00,16.4,-99.9,29.00,North,-999,-999.0,-999.0,-999,-99.99,,,-99.99,,2014-01-28 18:32:00,
2014-01-28 13:38:00,16.6,-99.9,29.00,North,-999,-999.0,-999.0,-999,-99.99,,,-99.99,,2014-01-28 18:38:00,
2014-01-28 13:44:00,15.8,-99.9,29.00,North,-999,-999.0,-999.0,-999,-99.99,,,-99.99,,2014-01-28 18:44:00,
2014-01-28 13:50:00,15.4,-99.9,29.00,North,-999,-999.0,-999.0,-999,-99.99,,,-99.99,,2014-01-28 18:50:00,
2014-01-28 13:56:00,15.1,-99.9,28.97,North,-999,-999.0,-999.0,-999,-99.99,,,-99.99,,2014-01-28 18:56:00,
2014-01-28 14:02:00,14.9,-99.9,29.00,North,-999,-999.0,-999.0,-999,-99.99,,,-99.99,,2014-01-28 19:02:00,
2014-01-28 14:08:00,14.6,-99.9,29.00,North,-999,-999.0,-999.0,-999,-99.99,,,-99.99,,2014-01-28 19:08:00,
2014-01-28 14:14:00,14.7,-99.9,28.97,North,-999,-999.0,-999.0,-999,-99.99,,,-99.99,,2014-01-28 19:14:00,
2014-01-28 14:20:00,14.2,-99.9,28.97,North,-999,-999.0,-999.0,-999,-99.99,,,-99.99,,2014-01-28 19:20:00,
2014-01-28 14:26:00,13.9,-99.9,29.00,North,-999,-999.0,-999.0,-999,-99.99,,,-99.99,,2014-01-28 19:26:00,
2014-01-28 14:32:00,13.8,-99.9,29.00,North,-999,-999.0,-999.0,-999,-99.99,,,-99.99,,2014-01-28 19:32:00,
2014-01-28 14:38:00,13.8,-99.9,28.97,North,-999,-999.0,-999.0,-999,-99.99,,,-99.99,,2014-01-28 19:38:00,
2014-01-28 14:44:00,13.7,-99.9,29.00,North,-999,-999.0,-999.0,-999,-99.99,,,-99.99,,2014-01-28 19:44:00,
2014-01-28 14:50:00,13.7,-99.9,29.00,North,-999,-999.0,-999.0,-999,-99.99,,,-99.99,,2014-01-28 19:50:00,
2014-01-28 14:56:00,13.8,-99.9,28.97,North,-999,-999.0,-999.0,-999,-99.99,,,-99.99,,2014-01-28 19:56:00,
2014-01-28 15:02:00,13.7,-99.9,28.97,North,-999,-999.0,-999.0,-999,-99.99,,,-99.99,,2014-01-28 20:02:00,
2014-01-28 15:08:00,13.3,-99.9,29.00,North,-999,-999.0,-999.0,-999,-99.99,,,-99.99,,2014-01-28 20:08:00,
2014-01-28 15:14:00,13.5,-99.9,28.97,North,-999,-999.0,-999.0,-999,-99.99,,,-99.99,,2014-01-28 20:14:00,
2014-01-28 15:20:00,13.3,-99.9,29.00,North,-999,-999.0,-999.0,-999,-99.99,,,-99.99,,2014-01-28 20:20:00,
2014-01-28 15:26:00,12.8,-99.9,28.97,North,-999,-999.0,-999.0,-999,-99.99,,,-99.99,,2014-01-28 20:26:00,
2014-01-28 15:32:00,12.8,-99.9,28.97,North,-999,-999.0,-999.0,-999,-99.99,,,-99.99,,2014-01-28 20:32:00,
2014-01-28 15:38:00,12.9,-99.9,29.00,North,-999,-999.0,-999.0,-999,-99.99,,,-99.99,,2014-01-28 20:38:00,
2014-01-28 15:44:00,12.8,-99.9,29.00,North,-999,-999.0,-999.0,-999,-99.99,,,-99.99,,2014-01-28 20:44:00,
2014-01-28 15:50:00,12.8,-99.9,28.97,North,-999,-999.0,-999.0,-999,-99.99,,,-99.99,,2014-01-28 20:50:00,
2014-01-28 15:56:00,12.6,-99.9,29.00,North,-999,-999.0,-999.0,-999,-99.99,,,-99.99,,2014-01-28 20:56:00,
2014-01-28 16:02:00,12.5,-99.9,29.00,North,-999,-999.0,-999.0,-999,-99.99,,,-99.99,,2014-01-28 21:02:00,
2014-01-28 16:08:00,12.5,-99.9,29.00,North,-999,-999.0,-999.0,-999,-99.99,,,-99.99,,2014-01-28 21:08:00,
2014-01-28 16:14:00,12.5,-99.9,28.97,North,-999,-999.0,-999.0,-999,-99.99,,,-99.99,,2014-01-28 21:14:00,
2014-01-28 16:20:00,12.4,-99.9,29.00,North,-999,-999.0,-999.0,-999,-99.99,,,-99.99,,2014-01-28 21:20:00,
2014-01-28 16:26:00,12.2,-99.9,29.00,North,-999,-999.0,-999.0,-999,-99.99,,,-99.99,,2014-01-28 21:26:00,
2014-01-28 16:32:00,12.1,-99.9,29.00,North,-999,-999.0,-999.0,-999,-99.99,,,-99.99,,2014-01-28 21:32:00,
2014-01-28 16:38:00,12.1,-99.9,29.00,North,-999,-999.0,-999.0,-999,-99.99,,,-99.99,,2014-01-28 21:38:00,
2014-01-28 16:44:00,12.1,-99.9,29.00,North,-999,-999.0,-999.0,-999,-99.99,,,-99.99,,2014-01-28 21:44:00,
2014-01-28 16:50:00,11.9,-99.9,29.00,North,-999,-999.0,-999.0,-999,-99.99,,,-99.99,,2014-01-28 21:50:00,
2014-01-28 16:56:00,11.8,-99.9,29.00,North,-999,-999.0,-999.0,-999,-99.99,,,-99.99,,2014-01-28 21:56:00,
2014-01-28 17:02:00,11.6,-99.9,29.00,North,-999,-999.0,-999.0,-999,-99.99,,,-99.99,,2014-01-28 22:02:00,
2014-01-28 17:08:00,11.6,-99.9,29.00,North,-999,-999.0,-999.0,-999,-99.99,,,-99.99,,2014-01-28 22:08:00,
2014-01-28 17:14:00,11.4,-99.9,29.00,North,-999,-999.0,-999.0,-999,-99.99,,,-99.99,,2014-01-28 22:14:00,
2014-01-28 17:20:00,10.9,-99.9,29.00,North,-999,-999.0,-999.0,-999,-99.99,,,-99.99,,2014-01-28 22:20:00,
2014-01-28 17:26:00,10.6,-99.9,29.00,North,-999,-999.0,-999.0,-999,-99.99,,,-99.99,,2014-01-28 22:26:00,
2014-01-28 17:32:00,10.4,-99.9,29.00,North,-999,-999.0,-999.0,-999,-99.99,,,-99.99,,2014-01-28 22:32:00,
2014-01-28 17:38:00,10.0,-99.9,29.00,North,-999,-999.0,-999.0,-999,-99.99,,,-99.99,,2014-01-28 22:38:00,
2014-01-28 17:44:00,9.4,-99.9,29.00,North,-999,-999.0,-999.0,-999,-99.99,,,-99.99,,2014-01-28 22:44:00,
2014-01-28 17:50:00,9.3,-99.9,29.00,North,-999,-999.0,-999.0,-999,-99.99,,,-99.99,,2014-01-28 22:50:00,
2014-01-28 17:56:00,9.1,-99.9,29.00,North,-999,-999.0,-999.0,-999,-99.99,,,-99.99,,2014-01-28 22:56:00,
2014-01-28 18:02:00,8.8,-99.9,29.00,North,-999,-999.0,-999.0,-999,-99.99,,,-99.99,,2014-01-28 23:02:00,
2014-01-28 18:08:00,8.2,-99.9,29.00,North,-999,-999.0,-999.0,-999,-99.99,,,-99.99,,2014-01-28 23:08:00,
2014-01-28 18:14:00,7.8,-99.9,29.00,North,-999,-999.0,-999.0,-999,-99.99,,,-99.99,,2014-01-28 23:14:00,
2014-01-28 18:20:00,7.8,-99.9,29.00,North,-999,-999.0,-999.0,-999,-99.99,,,-99.99,,2014-01-28 23:20:00,
2014-01-28 18:26:00,7.6,-99.9,29.00,North,-999,-999.0,-999.0,-999,-99.99,,,-99.99,,2014-01-28 23:26:00,
2014-01-28 18:32:00,7.6,-99.9,29.00,North,-999,-999.0,-999.0,-999,-99.99,,,-99.99,,2014-01-28 23:32:00,
2014-01-28 18:38:00,7.4,-99.9,29.00,North,-999,-999.0,-999.0,-999,-99.99,,,-99.99,,2014-01-28 23:38:00,
2014-01-28 18:44:00,7.3,-99.9,29.00,North,-999,-999.0,-999.0,-999,-99.99,,,-99.99,,2014-01-28 23:44:00,
2014-01-28 18:50:00,7.3,-99.9,29.00,North,-999,-999.0,-999.0,-999,-99.99,,,-99.99,,2014-01-28 23:50:00,
2014-01-28 18:56:00,7.5,-99.9,29.00,North,-999,-999.0,-999.0,-999,-99.99,,,-99.99,,2014-01-28 23:56:00,
2014-01-28 19:02:00,7.4,-99.9,29.00,North,-999,-999.0,-999.0,-999,-99.99,,,-99.99,,2014-01-29 00:02:00,
2014-01-28 19:08:00,7.4,-99.9,29.00,North,-999,-999.0,-999.0,-999,-99.99,,,-99.99,,2014-01-29 00:08:00,
2014-01-28 19:14:00,7.0,-99.9,29.00,North,-999,-999.0,-999.0,-999,-99.99,,,-99.99,,2014-01-29 00:14:00,
2014-01-28 19:20:00,6.6,-99.9,29.00,North,-999,-999.0,-999.0,-999,-99.99,,,-99.99,,2014-01-29 00:20:00,
2014-01-28 19:26:00,6.6,-99.9,29.00,North,-999,-999.0,-999.0,-999,-99.99,,,-99.99,,2014-01-29 00:26:00,
2014-01-28 19:32:00,6.6,-99.9,29.00,North,-999,-999.0,-999.0,-999,-99.99,,,-99.99,,2014-01-29 00:32:00,
2014-01-28 19:38:00,6.4,-99.9,28.97,North,-999,-999.0,-999.0,-999,-99.99,,,-99.99,,2014-01-29 00:38:00,
2014-01-28 19:44:00,6.3,-99.9,28.97,North,-999,-999.0,-999.0,-999,-99.99,,,-99.99,,2014-01-29 00:44:00,
2014-01-28 19:50:00,6.6,-99.9,28.97,North,-999,-999.0,-999.0,-999,-99.99,,,-99.99,,2014-01-29 00:50:00,
2014-01-28 19:56:00,6.7,-99.9,28.97,North,-999,-999.0,-999.0,-999,-99.99,,,-99.99,,2014-01-29 00:56:00,
2014-01-28 20:02:00,6.2,-99.9,28.97,North,-999,-999.0,-999.0,-999,-99.99,,,-99.99,,2014-01-29 01:02:00,
2014-01-28 20:08:00,6.1,-99.9,29.00,North,-999,-999.0,-999.0,-999,-99.99,,,-99.99,,2014-01-29 01:08:00,
2014-01-28 20:14:00,6.0,-99.9,28.97,North,-999,-999.0,-999.0,-999,-99.99,,,-99.99,,2014-01-29 01:14:00,
2014-01-28 20:20:00,6.1,-99.9,29.00,North,-999,-999.0,-999.0,-999,-99.99,,,-99.99,,2014-01-29 01:20:00,
2014-01-28 20:22:00,6.1,-99.9,28.97,North,-999,-999.0,-999.0,-999,-99.99,,,-99.99,,2014-01-29 01:22:00,
2014-01-28 20:28:00,6.0,-99.9,28.97,North,-999,-999.0,-999.0,-999,-99.99,,,-99.99,,2014-01-29 01:28:00,
2014-01-28 20:34:00,5.9,-99.9,28.97,North,-999,-999.0,-999.0,-999,-99.99,,,-99.99,,2014-01-29 01:34:00,
2014-01-28 20:40:00,6.0,-99.9,28.97,North,-999,-999.0,-999.0,-999,-99.99,,,-99.99,,2014-01-29 01:40:00,
2014-01-28 20:46:00,6.1,-99.9,29.00,North,-999,-999.0,-999.0,-999,-99.99,,,-99.99,,2014-01-29 01:46:00,
2014-01-28 20:52:00,6.3,-99.9,29.00,North,-999,-999.0,-999.0,-999,-99.99,,,-99.99,,2014-01-29 01:52:00,
2014-01-28 20:58:00,6.3,-99.9,28.97,North,-999,-999.0,-999.0,-999,-99.99,,,-99.99,,2014-01-29 01:58:00,
2014-01-28 21:04:00,6.1,-99.9,29.00,North,-999,-999.0,-999.0,-999,-99.99,,,-99.99,,2014-01-29 02:04:00,
2014-01-28 21:10:00,6.0,-99.9,29.00,North,-999,-999.0,-999.0,-999,-99.99,,,-99.99,,2014-01-29 02:10:00,
2014-01-28 21:16:00,5.9,-99.9,28.97,North,-999,-999.0,-999.0,-999,-99.99,,,-99.99,,2014-01-29 02:16:00,
2014-01-28 21:22:00,5.8,-99.9,28.97,North,-999,-999.0,-999.0,-999,-99.99,,,-99.99,,2014-01-29 02:22:00,
2014-01-28 21:28:00,5.7,-99.9,28.97,North,-999,-999.0,-999.0,-999,-99.99,,,-99.99,,2014-01-29 02:28:00,
2014-01-28 21:34:00,5.8,-99.9,28.97,North,-999,-999.0,-999.0,-999,-99.99,,,-99.99,,2014-01-29 02:34:00,
2014-01-28 21:40:00,5.9,-99.9,28.97,North,-999,-999.0,-999.0,-999,-99.99,,,-99.99,,2014-01-29 02:40:00,
2014-01-28 21:46:00,6.0,-99.9,28.97,North,-999,-999.0,-999.0,-999,-99.99,,,-99.99,,2014-01-29 02:46:00,
2014-01-28 21:52:00,6.0,-99.9,28.94,North,-999,-999.0,-999.0,-999,-99.99,,,-99.99,,2014-01-29 02:52:00,
2014-01-28 21:58:00,5.7,-99.9,28.94,North,-999,-999.0,-999.0,-999,-99.99,,,-99.99,,2014-01-29 02:58:00,
2014-01-28 22:04:00,5.6,-99.9,28.94,North,-999,-999.0,-999.0,-999,-99.99,,,-99.99,,2014-01-29 03:04:00,
2014-01-28 22:10:00,5.6,-99.9,28.97,North,-999,-999.0,-999.0,-999,-99.99,,,-99.99,,2014-01-29 03:10:00,
2014-01-28 22:16:00,5.5,-99.9,28.94,North,-999,-999.0,-999.0,-999,-99.99,,,-99.99,,2014-01-29 03:16:00,
2014-01-28 22:22:00,5.4,-99.9,28.94,North,-999,-999.0,-999.0,-999,-99.99,,,-99.99,,2014-01-29 03:22:00,
2014-01-28 22:28:00,5.3,-99.9,28.94,North,-999,-999.0,-999.0,-999,-99.99,,,-99.99,,2014-01-29 03:28:00,
2014-01-28 22:34:00,5.3,-99.9,28.94,North,-999,-999.0,-999.0,-999,-99.99,,,-99.99,,2014-01-29 03:34:00,
2014-01-28 22:40:00,5.4,-99.9,28.94,North,-999,-999.0,-999.0,-999,-99.99,,,-99.99,,2014-01-29 03:40:00,
2014-01-28 22:46:00,5.3,-99.9,28.94,North,-999,-999.0,-999.0,-999,-99.99,,,-99.99,,2014-01-29 03:46:00,
2014-01-28 22:52:00,5.1,-99.9,28.94,North,-999,-999.0,-999.0,-999,-99.99,,,-99.99,,2014-01-29 03:52:00,
2014-01-28 22:58:00,5.2,-99.9,28.94,North,-999,-999.0,-999.0,-999,-99.99,,,-99.99,,2014-01-29 03:58:00,
2014-01-28 23:04:00,5.1,-99.9,28.94,North,-999,-999.0,-999.0,-999,-99.99,,,-99.99,,2014-01-29 04:04:00,
2014-01-28 23:10:00,4.9,-99.9,28.91,North,-999,-999.0,-999.0,-999,-99.99,,,-99.99,,2014-01-29 04:10:00,
2014-01-28 23:16:00,4.9,-99.9,28.94,North,-999,-999.0,-999.0,-999,-99.99,,,-99.99,,2014-01-29 04:16:00,
2014-01-28 23:22:00,5.1,-99.9,28.94,North,-999,-999.0,-999.0,-999,-99.99,,,-99.99,,2014-01-29 04:22:00,
2014-01-28 23:28:00,5.4,-99.9,28.94,North,-999,-999.0,-999.0,-999,-99.99,,,-99.99,,2014-01-29 04:28:00,
2014-01-28 23:34:00,5.2,-99.9,28.94,North,-999,-999.0,-999.0,-999,-99.99,,,-99.99,,2014-01-29 04:34:00,
2014-01-28 23:40:00,5.0,-99.9,28.94,North,-999,-999.0,-999.0,-999,-99.99,,,-99.99,,2014-01-29 04:40:00,
2014-01-28 23:46:00,4.9,-99.9,28.94,North,-999,-999.0,-999.0,-999,-99.99,,,-99.99,,2014-01-29 04:46:00,
2014-01-28 23:52:00,4.8,-99.9,28.94,North,-999,-999.0,-999.0,-999,-99.99,,,-99.99,,2014-01-29 04:52:00,
2014-01-28 23:58:00,4.8,-99.9,28.94,North,-999,-999.0,-999.0,-999,-99.99,,,-99.99,,2014-01-29 04:58:00,